This is the latest recevied weather packets stored in our database for station/object W8BS. If no packets are shown the sender has not sent any weather packets the latest 10 day(s).
| Time | Temp. | Humidity | Pressure | Rain* | Wind** | Luminosity | Snow |
|---|---|---|---|---|---|---|---|
| 1777846748 | 11.67° C | 42% | 1014.4 hPa | 0 mm | - | 46 W/m² | - |
| 1777846446 | 11.67° C | 42% | 1014.6 hPa | 0 mm | - | 47 W/m² | - |
| 1777846142 | 11.67° C | 42% | 1014.3 hPa | 0 mm | - | 48 W/m² | - |
| 1777845838 | 11.67° C | 42% | 1014.6 hPa | 0 mm | - | 49 W/m² | - |
| 1777845535 | 11.67° C | 42% | 1014.5 hPa | 0 mm | - | 56 W/m² | - |
| 1777845233 | 11.67° C | 41% | 1014.4 hPa | 0 mm | - | 111 W/m² | - |
| 1777844930 | 11.67° C | 40% | 1014.4 hPa | 0 mm | - | 100 W/m² | - |
| 1777844627 | 11.67° C | 41% | 1014.4 hPa | 0 mm | - | 134 W/m² | - |
| 1777844325 | 12.22° C | 40% | 1014.4 hPa | 0 mm | - | 189 W/m² | - |
| 1777844022 | 12.22° C | 40% | 1014.5 hPa | 0 mm | - | 227 W/m² | - |
| 1777843719 | 12.22° C | 40% | 1014.3 hPa | 0 mm | - | 199 W/m² | - |
| 1777843417 | 12.22° C | 40% | 1014.4 hPa | 0 mm | - | 380 W/m² | - |
| 1777843114 | 12.78° C | 39% | 1014.4 hPa | 0 mm | - | 410 W/m² | - |
| 1777842810 | 12.78° C | 39% | 1014.3 hPa | 0 mm | - | 432 W/m² | - |
| 1777842505 | 13.33° C | 39% | 1014.8 hPa | 0 mm | - | 431 W/m² | - |
| 1777842203 | 12.78° C | 40% | 1014.5 hPa | 0 mm | - | 442 W/m² | - |
| 1777841898 | 12.78° C | 39% | 1014.8 hPa | 0 mm | - | 459 W/m² | - |
| 1777841595 | 12.22° C | 41% | 1014.6 hPa | 0 mm | - | 465 W/m² | - |
| 1777841291 | 12.78° C | 40% | 1014.7 hPa | 0 mm | - | 482 W/m² | - |
| 1777840989 | 12.78° C | 40% | 1015.1 hPa | 0 mm | - | 492 W/m² | - |
| 1777840686 | 12.22° C | 39% | 1015 hPa | 0 mm | - | 501 W/m² | - |
| 1777840384 | 12.78° C | 40% | 1014.9 hPa | 0 mm | - | 506 W/m² | - |
| 1777840080 | 12.78° C | 42% | 1014.8 hPa | 0 mm | - | 529 W/m² | - |
| 1777839778 | 12.78° C | 41% | 1014.8 hPa | 0 mm | - | 537 W/m² | - |
| 1777839476 | 11.67° C | 41% | 1014.9 hPa | 0 mm | - | 536 W/m² | - |
* Rain latest hour (hover to see other rain measurements)
** Current wind speed in m/s (hover to see current wind gust speed)